TimeEDT,TemperatureF,Dew PointF,Humidity,Sea Level PressureIn,VisibilityMPH,Wind Direction,Wind SpeedMPH,Gust SpeedMPH,PrecipitationIn,Events,Conditions,WindDirDegrees,DateUTC
12:53 AM,41.0,36.0,82,30.19,10.0,North,3.5,-,N/A,,Clear,360,2012-10-08 04:53:00
1:53 AM,42.1,35.1,76,30.20,10.0,Calm,Calm,-,N/A,,Clear,0,2012-10-08 05:53:00
2:53 AM,39.9,36.0,86,30.22,10.0,Calm,Calm,-,N/A,,Clear,0,2012-10-08 06:53:00
3:53 AM,39.9,36.0,86,30.21,10.0,Calm,Calm,-,N/A,,Clear,0,2012-10-08 07:53:00
4:53 AM,39.9,37.0,89,30.21,10.0,Calm,Calm,-,N/A,,Clear,0,2012-10-08 08:53:00
5:53 AM,41.0,36.0,82,30.20,10.0,Calm,Calm,-,N/A,,Clear,0,2012-10-08 09:53:00
6:53 AM,39.9,36.0,86,30.22,10.0,Calm,Calm,-,N/A,,Clear,0,2012-10-08 10:53:00
7:53 AM,39.9,36.0,86,30.22,10.0,Calm,Calm,-,N/A,,Clear,0,2012-10-08 11:53:00
8:53 AM,42.1,37.0,82,30.24,10.0,Calm,Calm,-,N/A,,Clear,0,2012-10-08 12:53:00
9:53 AM,44.1,35.1,71,30.26,10.0,Calm,Calm,-,N/A,,Scattered Clouds,0,2012-10-08 13:53:00
10:53 AM,46.0,35.1,66,30.25,10.0,Calm,Calm,-,N/A,,Mostly Cloudy,0,2012-10-08 14:53:00
11:53 AM,46.9,36.0,66,30.24,10.0,North,3.5,-,N/A,,Mostly Cloudy,350,2012-10-08 15:53:00
12:53 PM,50.0,37.9,63,30.23,10.0,Calm,Calm,-,N/A,,Mostly Cloudy,0,2012-10-08 16:53:00
1:53 PM,53.1,37.9,57,30.21,10.0,Calm,Calm,-,N/A,,Mostly Cloudy,0,2012-10-08 17:53:00
2:53 PM,53.1,37.9,57,30.19,10.0,Calm,Calm,-,N/A,,Overcast,0,2012-10-08 18:53:00
3:53 PM,57.0,37.9,49,30.18,10.0,Calm,Calm,-,N/A,,Partly Cloudy,0,2012-10-08 19:53:00
4:53 PM,55.9,36.0,47,30.16,10.0,Calm,Calm,-,N/A,,Clear,0,2012-10-08 20:53:00
5:53 PM,55.0,36.0,49,30.14,10.0,East,5.8,-,N/A,,Clear,90,2012-10-08 21:53:00
6:53 PM,51.1,37.9,61,30.15,10.0,East,4.6,-,N/A,,Clear,90,2012-10-08 22:53:00
8:53 PM,43.0,37.9,82,30.16,10.0,Calm,Calm,-,N/A,,Clear,0,2012-10-09 00:53:00
9:53 PM,45.0,37.9,76,30.17,10.0,ESE,3.5,-,N/A,,Clear,120,2012-10-09 01:53:00
10:53 PM,43.0,37.9,82,30.18,10.0,ESE,3.5,-,N/A,,Clear,120,2012-10-09 02:53:00
11:53 PM,42.1,39.0,89,30.18,10.0,SE,3.5,-,N/A,,Clear,140,2012-10-09 03:53:00